This is the latest recevied weather packets stored in our database for station/object KD8UTJ. If no packets are shown the sender has not sent any weather packets the latest 1 day(s).
| Time | Temp. | Humidity | Pressure | Rain* | Wind** | Luminosity | Snow |
|---|---|---|---|---|---|---|---|
| 1777998355 | 26.11° C | 59% | 1019 hPa | 0 mm | 2.24 m/s, 96° | 788 W/m² | - |
| 1777998052 | 25.56° C | 61% | 1019 hPa | 0 mm | 3.58 m/s, 131° | 762 W/m² | - |
| 1777997749 | 26.11° C | 59% | 1019.2 hPa | 0 mm | 3.13 m/s, 116° | 759 W/m² | - |
| 1777997447 | 26.11° C | 59% | 1019 hPa | 0 mm | 1.34 m/s, 123° | 788 W/m² | - |
| 1777997144 | 26.11° C | 61% | 1019.3 hPa | 0 mm | 2.24 m/s, 89° | 808 W/m² | - |
| 1777996841 | 25.56° C | 63% | 1019 hPa | 0 mm | 2.24 m/s, 79° | 787 W/m² | - |
| 1777996539 | 25.56° C | 61% | 1019.1 hPa | 0 mm | 2.68 m/s, 133° | 747 W/m² | - |
| 1777996234 | 26.11° C | 62% | 1019.2 hPa | 0 mm | 1.79 m/s, 96° | 766 W/m² | - |
| 1777995930 | 26.11° C | 62% | 1019.1 hPa | 0 mm | 0.89 m/s, 0° | 740 W/m² | - |
| 1777995626 | 26.11° C | 63% | 1019 hPa | 0 mm | 0.89 m/s, 117° | 687 W/m² | - |
| 1777995324 | 26.11° C | 60% | 1019.1 hPa | 0 mm | 2.24 m/s, 68° | 717 W/m² | - |
| 1777995021 | 26.11° C | 61% | 1019.2 hPa | 0 mm | 2.24 m/s, 87° | 728 W/m² | - |
| 1777994718 | 26.67° C | 58% | 1019 hPa | 0 mm | 1.79 m/s, 103° | 714 W/m² | - |
| 1777994413 | 26.67° C | 58% | 1019 hPa | 0 mm | 1.79 m/s, 28° | 726 W/m² | - |
| 1777994109 | 25.56° C | 66% | 1019.1 hPa | 0 mm | 1.34 m/s, 15° | 713 W/m² | - |
| 1777993806 | 26.11° C | 62% | 1019.1 hPa | 0 mm | 3.13 m/s, 106° | 696 W/m² | - |
| 1777993502 | 26.11° C | 59% | 1019 hPa | 0 mm | 0.89 m/s, 108° | 668 W/m² | - |
| 1777993203 | 26.11° C | 63% | 1018.9 hPa | 0 mm | 2.68 m/s, 100° | 668 W/m² | - |
| 1777992900 | 26.11° C | 63% | 1018.9 hPa | 0 mm | 1.34 m/s, 108° | 656 W/m² | - |
| 1777992598 | 26.11° C | 60% | 1018.7 hPa | 0 mm | 2.68 m/s, 89° | 641 W/m² | - |
| 1777992296 | 25.56° C | 65% | 1018.7 hPa | 0 mm | 0.89 m/s, 121° | 626 W/m² | - |
| 1777991993 | 26.11° C | 63% | 1018.5 hPa | 0 mm | 1.79 m/s, 104° | 616 W/m² | - |
| 1777991691 | 25.56° C | 64% | 1018.6 hPa | 0 mm | 2.24 m/s, 109° | 597 W/m² | - |
| 1777991388 | 25.56° C | 64% | 1018.5 hPa | 0 mm | 1.79 m/s, 106° | 542 W/m² | - |
| 1777991085 | 25.56° C | 63% | 1018.5 hPa | 0 mm | 2.24 m/s, 75° | 586 W/m² | - |
* Rain latest hour (hover to see other rain measurements)
** Current wind speed in m/s (hover to see current wind gust speed)